Zurück zum Katalog

POISK

AktivWissenschaftVLEO
NORAD 36086·PAYLOAD·🇷🇺 Russia

Gestartet Nov 10, 2009 von Baikonur Cosmodrome

Loading…

Nächste Überflüge (nächste 24 Stunden)

TLE

AktuellSource: Space-Track

Epoche: Sep 14, 2026, 08:04 UTC

1 36086U 09060A   26257.33674862  .00004921  00000-0  97059-4 0  9999
2 36086  51.6309 218.8707 0004933 140.1115 220.0237 15.49109585586466

Verfolge POISK in Echtzeit mit AllMySat

Download on the App Store